project_name,platform_name,Date_(yyyymmdd),Time_(hh24miss),beacon_ID,latitude_DD,longitude_DD,altitude_m,altitude_result_value_type,speed_m_s,speed_result_value_type,direction_degrees,direction_result_value_type,fix,sat
BaySys,Amundsen,2007-12-14,20:05:36,300034012022250,71.4643,-125.7825,-4.3385,Actual,,Calculated,263.7000,Calculated,1,9
BaySys,Amundsen,2007-12-14,20:09:36,300034012022250,71.4642,-125.7835,12.2539,Actual,,Calculated,36.4400,Calculated,1,5
BaySys,Amundsen,2007-12-14,20:13:23,300034012022250,71.4643,-125.7964,412.3531,Actual,,Calculated,259.9200,Calculated,1,5
BaySys,Amundsen,2007-12-14,22:12:36,300034012022250,71.4580,-125.7960,44.8528,Actual,,Calculated,133.0100,Calculated,1,7
BaySys,Amundsen,2007-12-15,00:13:06,300034012022250,71.4517,-125.8007,-11.4658,Actual,,Calculated,185.9100,Calculated,1,6
BaySys,Amundsen,2007-12-15,02:13:00,300034012022250,71.4452,-125.8014,4.7182,Actual,,Calculated,182.4100,Calculated,1,5
BaySys,Amundsen,2007-12-15,04:12:45,300034012022250,71.4404,-125.8025,19.2605,Actual,,Calculated,253.7400,Calculated,1,9
BaySys,Amundsen,2007-12-15,06:13:23,300034012022250,71.4386,-125.8060,-12.3552,Actual,,Calculated,176.4300,Calculated,1,8
BaySys,Amundsen,2007-12-15,08:13:07,300034012022250,71.4374,-125.8116,17.7488,Actual,,Calculated,73.2300,Calculated,1,5
BaySys,Amundsen,2007-12-15,10:12:52,300034012022250,71.4364,-125.8195,2.7923,Actual,,Calculated,262.7000,Calculated,1,7
BaySys,Amundsen,2007-12-15,12:13:29,300034012022250,71.4349,-125.8309,-5.1086,Actual,,Calculated,218.6800,Calculated,1,9
BaySys,Amundsen,2007-12-15,14:13:23,300034012022250,71.4332,-125.8427,-10.6415,Actual,,Calculated,244.7300,Calculated,1,8
BaySys,Amundsen,2007-12-15,16:13:29,300034012022250,71.4329,-125.8520,-4.5463,Actual,,Calculated,257.5600,Calculated,1,7
BaySys,Amundsen,2007-12-15,18:13:29,300034012022250,71.4342,-125.8626,-7.1363,Actual,,Calculated,288.8800,Calculated,1,8
BaySys,Amundsen,2007-12-15,20:12:57,300034012022250,71.4367,-125.8808,21.2084,Actual,,Calculated,289.0600,Calculated,1,9
BaySys,Amundsen,2007-12-15,22:12:58,300034012022250,71.4411,-125.9053,-7.7304,Actual,,Calculated,301.6500,Calculated,1,9
BaySys,Amundsen,2007-12-16,00:13:03,300034012022250,71.4472,-125.9324,-4.2177,Actual,,Calculated,321.9800,Calculated,1,9
BaySys,Amundsen,2007-12-16,02:13:35,300034012022250,71.4533,-125.9560,-5.9729,Actual,,Calculated,331.0500,Calculated,1,9
BaySys,Amundsen,2007-12-16,04:13:35,300034012022250,71.4585,-125.9701,2.3642,Actual,,Calculated,157.4900,Calculated,1,9
BaySys,Amundsen,2007-12-16,06:13:35,300034012022250,71.4613,-125.9833,-7.2683,Actual,,Calculated,324.7900,Calculated,1,10
BaySys,Amundsen,2007-12-16,08:13:35,300034012022250,71.4648,-126.0052,-7.9930,Actual,,Calculated,300.0600,Calculated,1,9
BaySys,Amundsen,2007-12-16,10:13:26,300034012022250,71.4701,-126.0287,16.7298,Actual,,Calculated,259.6200,Calculated,1,9
BaySys,Amundsen,2007-12-16,12:13:08,300034012022250,71.4753,-126.0480,-6.6754,Actual,,Calculated,283.7900,Calculated,1,6
BaySys,Amundsen,2007-12-16,14:13:35,300034012022250,71.4801,-126.0582,-8.6747,Actual,,Calculated,193.3700,Calculated,1,8
BaySys,Amundsen,2007-12-16,16:13:32,300034012022250,71.4836,-126.0663,-4.7510,Actual,,Calculated,357.6700,Calculated,1,9
BaySys,Amundsen,2007-12-16,18:13:59,300034012022250,71.4862,-126.0735,-12.4451,Actual,,Calculated,330.3400,Calculated,1,9
BaySys,Amundsen,2007-12-16,20:13:29,300034012022250,71.4893,-126.0832,-35.7436,Actual,,Calculated,343.4600,Calculated,1,7
BaySys,Amundsen,2007-12-16,22:13:53,300034012022250,71.4935,-126.0984,-24.6246,Actual,,Calculated,336.3900,Calculated,1,8
BaySys,Amundsen,2007-12-17,00:13:43,300034012022250,71.4980,-126.1160,-11.5976,Actual,,Calculated,282.2900,Calculated,1,7
BaySys,Amundsen,2007-12-17,02:13:33,300034012022250,71.5013,-126.1304,-2.8487,Actual,,Calculated,321.5600,Calculated,1,10
BaySys,Amundsen,2007-12-17,04:14:05,300034012022250,71.5033,-126.1391,-3.0915,Actual,,Calculated,311.8300,Calculated,1,9
BaySys,Amundsen,2007-12-17,06:14:00,300034012022250,71.5044,-126.1447,-4.6432,Actual,,Calculated,244.1200,Calculated,1,10
BaySys,Amundsen,2007-12-17,08:13:41,300034012022250,71.5057,-126.1531,-2.8228,Actual,,Calculated,211.5500,Calculated,1,8
BaySys,Amundsen,2007-12-17,10:14:06,300034012022250,71.5069,-126.1685,6.3218,Actual,,Calculated,313.9700,Calculated,1,5
BaySys,Amundsen,2007-12-17,12:14:05,300034012022250,71.5096,-126.1878,0.1498,Actual,,Calculated,289.5700,Calculated,1,6
BaySys,Amundsen,2007-12-17,14:13:55,300034012022250,71.5115,-126.2063,0.7774,Actual,,Calculated,222.2600,Calculated,1,5
BaySys,Amundsen,2007-12-17,16:13:41,300034012022250,71.5115,-126.2180,-7.5414,Actual,,Calculated,295.8900,Calculated,1,6
BaySys,Amundsen,2007-12-17,18:13:42,300034012022250,71.5111,-126.2315,-4.9674,Actual,,Calculated,206.1600,Calculated,1,8
BaySys,Amundsen,2007-12-17,20:14:05,300034012022250,71.5113,-126.2472,1.1914,Actual,,Calculated,276.8800,Calculated,1,5
BaySys,Amundsen,2007-12-17,22:13:51,300034012022250,71.5122,-126.2685,-8.8403,Actual,,Calculated,269.2500,Calculated,1,8
BaySys,Amundsen,2007-12-18,00:14:05,300034012022250,71.5132,-126.2929,-6.2602,Actual,,Calculated,165.4300,Calculated,1,7
BaySys,Amundsen,2007-12-18,02:14:06,300034012022250,71.5141,-126.3200,-0.0075,Actual,,Calculated,263.9000,Calculated,1,6
BaySys,Amundsen,2007-12-18,04:13:56,300034012022250,71.5155,-126.3461,11.5523,Actual,,Calculated,257.3000,Calculated,1,6
BaySys,Amundsen,2007-12-18,06:14:01,300034012022250,71.5168,-126.3716,-7.9156,Actual,,Calculated,246.0600,Calculated,1,7
BaySys,Amundsen,2007-12-18,08:14:35,300034012022250,71.5189,-126.4009,0.9803,Actual,,Calculated,294.5400,Calculated,1,7
BaySys,Amundsen,2007-12-18,10:14:26,300034012022250,71.5225,-126.4393,0.0725,Actual,,Calculated,271.6100,Calculated,1,9
BaySys,Amundsen,2007-12-18,12:14:02,300034012022250,71.5285,-126.4803,-6.3169,Actual,,Calculated,299.3400,Calculated,1,8
BaySys,Amundsen,2007-12-18,14:14:35,300034012022250,71.5367,-126.5131,6.4949,Actual,,Calculated,250.2800,Calculated,1,6
BaySys,Amundsen,2007-12-18,16:14:24,300034012022250,71.5442,-126.5371,-3.9007,Actual,,Calculated,275.7700,Calculated,1,6
BaySys,Amundsen,2007-12-18,18:14:11,300034012022250,71.5490,-126.5560,-1.7703,Actual,,Calculated,231.6300,Calculated,1,8
BaySys,Amundsen,2007-12-18,20:14:35,300034012022250,71.5519,-126.5756,3.5921,Actual,,Calculated,294.4700,Calculated,1,6
BaySys,Amundsen,2007-12-18,22:14:35,300034012022250,71.5554,-126.5986,-1.4945,Actual,,Calculated,256.1000,Calculated,1,5
BaySys,Amundsen,2007-12-19,00:14:53,300034012022250,71.5591,-126.6251,-7.5357,Actual,,Calculated,290.3600,Calculated,1,8
BaySys,Amundsen,2007-12-19,02:15:05,300034012022250,71.5626,-126.6519,-2.2346,Actual,,Calculated,206.7000,Calculated,1,9
BaySys,Amundsen,2007-12-19,04:14:38,300034012022250,71.5657,-126.6745,4.3798,Actual,,Calculated,302.9400,Calculated,1,9
BaySys,Amundsen,2007-12-19,06:14:33,300034012022250,71.5683,-126.6936,-5.9172,Actual,,Calculated,234.9600,Calculated,1,6
BaySys,Amundsen,2007-12-19,08:15:05,300034012022250,71.5702,-126.7136,-6.3149,Actual,,Calculated,321.9700,Calculated,1,9
BaySys,Amundsen,2007-12-19,10:14:54,300034012022250,71.5728,-126.7386,1.2985,Actual,,Calculated,6.7200,Calculated,1,7
BaySys,Amundsen,2007-12-19,12:14:34,300034012022250,71.5768,-126.7723,5.7894,Actual,,Calculated,326.9300,Calculated,1,7
BaySys,Amundsen,2007-12-19,14:15:05,300034012022250,71.5817,-126.8122,1.3961,Actual,,Calculated,212.7200,Calculated,1,8
BaySys,Amundsen,2007-12-19,16:15:23,300034012022250,71.5865,-126.8485,3.4422,Actual,,Calculated,289.2000,Calculated,1,8
BaySys,Amundsen,2007-12-19,18:15:05,300034012022250,71.5900,-126.8776,-10.0384,Actual,,Calculated,289.9000,Calculated,1,6
BaySys,Amundsen,2007-12-19,20:15:00,300034012022250,71.5919,-126.9051,1.9169,Actual,,Calculated,298.0600,Calculated,1,6
BaySys,Amundsen,2007-12-19,22:15:05,300034012022250,71.5925,-126.9340,-5.1276,Actual,,Calculated,331.6000,Calculated,1,8
BaySys,Amundsen,2007-12-20,00:15:14,300034012022250,71.5936,-126.9656,-11.2414,Actual,,Calculated,288.8200,Calculated,1,8
BaySys,Amundsen,2007-12-20,02:14:59,300034012022250,71.5955,-126.9973,-2.4092,Actual,,Calculated,294.5400,Calculated,1,9
BaySys,Amundsen,2007-12-20,04:15:35,300034012022250,71.5977,-127.0214,-3.3913,Actual,,Calculated,284.8600,Calculated,1,8
BaySys,Amundsen,2007-12-20,06:15:20,300034012022250,71.5993,-127.0381,-8.7294,Actual,,Calculated,263.4200,Calculated,1,9
BaySys,Amundsen,2007-12-20,08:15:06,300034012022250,71.5991,-127.0509,10.5652,Actual,,Calculated,252.9900,Calculated,1,9
BaySys,Amundsen,2007-12-20,10:15:07,300034012022250,71.5980,-127.0646,-2.1283,Actual,,Calculated,112.9100,Calculated,1,8
BaySys,Amundsen,2007-12-20,12:15:07,300034012022250,71.5973,-127.0839,24.5685,Actual,,Calculated,286.1700,Calculated,1,9
BaySys,Amundsen,2007-12-20,14:15:35,300034012022250,71.5970,-127.1071,-3.8813,Actual,,Calculated,243.3800,Calculated,1,9
BaySys,Amundsen,2007-12-20,16:15:35,300034012022250,71.5977,-127.1260,-2.7954,Actual,,Calculated,312.6800,Calculated,1,8
BaySys,Amundsen,2007-12-20,18:15:35,300034012022250,71.5986,-127.1382,-1.7229,Actual,,Calculated,219.7300,Calculated,1,6
BaySys,Amundsen,2007-12-20,20:15:12,300034012022250,71.5987,-127.1458,-0.9751,Actual,,Calculated,67.0700,Calculated,1,9
BaySys,Amundsen,2007-12-20,22:15:35,300034012022250,71.5987,-127.1537,-0.7891,Actual,,Calculated,255.0700,Calculated,1,6
BaySys,Amundsen,2007-12-21,00:15:18,300034012022250,71.5999,-127.1645,41.1279,Actual,,Calculated,285.8600,Calculated,1,9
BaySys,Amundsen,2007-12-21,02:15:53,300034012022250,71.6025,-127.1801,3.8987,Actual,,Calculated,282.6800,Calculated,1,10
BaySys,Amundsen,2007-12-21,04:15:53,300034012022250,71.6062,-127.1987,1.1277,Actual,,Calculated,286.2900,Calculated,1,8
BaySys,Amundsen,2007-12-21,06:15:31,300034012022250,71.6096,-127.2108,-4.6932,Actual,,Calculated,199.3400,Calculated,1,10
BaySys,Amundsen,2007-12-21,08:16:05,300034012022250,71.6113,-127.2186,-1.0961,Actual,,Calculated,250.2000,Calculated,1,12
BaySys,Amundsen,2007-12-21,10:15:59,300034012022250,71.6132,-127.2304,-0.3932,Actual,,Calculated,194.4400,Calculated,1,8
BaySys,Amundsen,2007-12-21,12:15:34,300034012022250,71.6177,-127.2516,-3.3442,Actual,,Calculated,311.2300,Calculated,1,9
BaySys,Amundsen,2007-12-21,14:16:05,300034012022250,71.6251,-127.2771,-2.5873,Actual,,Calculated,273.2900,Calculated,1,10
BaySys,Amundsen,2007-12-21,16:16:04,300034012022250,71.6314,-127.2989,-20.5760,Actual,,Calculated,312.7600,Calculated,1,8
BaySys,Amundsen,2007-12-21,18:15:35,300034012022250,71.6357,-127.3123,-7.6609,Actual,,Calculated,292.4500,Calculated,1,8
BaySys,Amundsen,2007-12-21,20:16:05,300034012022250,71.6376,-127.3235,-3.9454,Actual,,Calculated,274.0000,Calculated,1,11
BaySys,Amundsen,2007-12-21,22:15:44,300034012022250,71.6391,-127.3368,-14.0060,Actual,,Calculated,342.4000,Calculated,1,11
BaySys,Amundsen,2007-12-22,00:15:46,300034012022250,71.6408,-127.3541,0.1707,Actual,,Calculated,307.3400,Calculated,1,11
BaySys,Amundsen,2007-12-22,02:16:23,300034012022250,71.6469,-127.3789,-7.7265,Actual,,Calculated,323.9200,Calculated,1,10
BaySys,Amundsen,2007-12-22,04:15:52,300034012022250,71.6554,-127.4087,-2.4653,Actual,,Calculated,319.9400,Calculated,1,9
BaySys,Amundsen,2007-12-22,06:16:23,300034012022250,71.6665,-127.4381,7.5966,Actual,,Calculated,286.8800,Calculated,1,11
BaySys,Amundsen,2007-12-22,08:16:18,300034012022250,71.6786,-127.4592,4.1567,Actual,,Calculated,61.1500,Calculated,1,10
BaySys,Amundsen,2007-12-22,10:16:01,300034012022250,71.6863,-127.4798,-0.8994,Actual,,Calculated,303.0200,Calculated,1,10
BaySys,Amundsen,2007-12-22,12:15:59,300034012022250,71.6924,-127.5109,-3.5574,Actual,,Calculated,323.7900,Calculated,1,10
BaySys,Amundsen,2007-12-22,14:16:35,300034012022250,71.7003,-127.5524,-4.0630,Actual,,Calculated,282.3100,Calculated,1,11
BaySys,Amundsen,2007-12-22,16:16:28,300034012022250,71.7075,-127.5978,1.6757,Actual,,Calculated,296.0600,Calculated,1,8
BaySys,Amundsen,2007-12-22,18:16:09,300034012022250,71.7167,-127.6359,12.3886,Actual,,Calculated,293.1000,Calculated,1,9
BaySys,Amundsen,2007-12-22,20:16:07,300034012022250,71.7211,-127.6599,8.4747,Actual,,Calculated,311.4400,Calculated,1,10
BaySys,Amundsen,2007-12-22,22:16:35,300034012022250,71.7217,-127.6830,-5.3069,Actual,,Calculated,171.2300,Calculated,1,10
BaySys,Amundsen,2007-12-23,00:16:24,300034012022250,71.7209,-127.7084,3.6788,Actual,,Calculated,234.3100,Calculated,1,8
BaySys,Amundsen,2007-12-23,02:16:53,300034012022250,71.7206,-127.7395,-8.9350,Actual,,Calculated,271.5200,Calculated,1,10
BaySys,Amundsen,2007-12-23,04:16:21,300034012022250,71.7207,-127.7736,2.1576,Actual,,Calculated,271.5600,Calculated,1,8
BaySys,Amundsen,2007-12-23,06:16:23,300034012022250,71.7208,-127.8101,-17.2533,Actual,,Calculated,285.8500,Calculated,1,8
BaySys,Amundsen,2007-12-23,08:16:59,300034012022250,71.7194,-127.8439,4.5513,Actual,,Calculated,322.3500,Calculated,1,10
BaySys,Amundsen,2007-12-23,10:16:31,300034012022250,71.7163,-127.8755,-0.8055,Actual,,Calculated,274.4400,Calculated,1,8
BaySys,Amundsen,2007-12-23,12:17:05,300034012022250,71.7130,-127.9129,0.1952,Actual,,Calculated,224.7000,Calculated,1,12
BaySys,Amundsen,2007-12-23,14:16:50,300034012022250,71.7113,-127.9573,1.4997,Actual,,Calculated,281.0200,Calculated,1,11
BaySys,Amundsen,2007-12-23,16:16:37,300034012022250,71.7118,-128.0058,-1.6205,Actual,,Calculated,280.2800,Calculated,1,8
BaySys,Amundsen,2007-12-23,18:16:37,300034012022250,71.7135,-128.0499,13.6523,Actual,,Calculated,311.7600,Calculated,1,9
BaySys,Amundsen,2007-12-23,20:17:05,300034012022250,71.7141,-128.0850,-0.0452,Actual,,Calculated,230.4800,Calculated,1,11
BaySys,Amundsen,2007-12-23,22:16:43,300034012022250,71.7100,-128.1163,15.5780,Actual,,Calculated,230.8900,Calculated,1,9
BaySys,Amundsen,2007-12-24,00:16:42,300034012022250,71.7044,-128.1517,-4.6791,Actual,,Calculated,270.4100,Calculated,1,11
BaySys,Amundsen,2007-12-24,02:17:29,300034012022250,71.7001,-128.1956,6.5472,Actual,,Calculated,274.2100,Calculated,1,10
BaySys,Amundsen,2007-12-24,04:16:52,300034012022250,71.6981,-128.2455,-3.1812,Actual,,Calculated,275.2400,Calculated,1,8
BaySys,Amundsen,2007-12-24,06:17:29,300034012022250,71.6975,-128.2968,-6.4869,Actual,,Calculated,281.4200,Calculated,1,10
BaySys,Amundsen,2007-12-24,08:17:18,300034012022250,71.6969,-128.3397,7.3407,Actual,,Calculated,266.8700,Calculated,1,11
BaySys,Amundsen,2007-12-24,10:16:59,300034012022250,71.6943,-128.3779,2.4718,Actual,,Calculated,264.8900,Calculated,1,5
BaySys,Amundsen,2007-12-24,12:17:35,300034012022250,71.6899,-128.4209,-0.1436,Actual,,Calculated,168.9100,Calculated,1,12
BaySys,Amundsen,2007-12-24,14:17:25,300034012022250,71.6873,-128.4796,0.8618,Actual,,Calculated,259.7100,Calculated,1,10
BaySys,Amundsen,2007-12-24,16:17:10,300034012022250,71.6875,-128.5458,-12.0915,Actual,,Calculated,288.3400,Calculated,1,7
BaySys,Amundsen,2007-12-24,18:17:06,300034012022250,71.6921,-128.6098,-1.6416,Actual,,Calculated,276.9800,Calculated,1,10
BaySys,Amundsen,2007-12-24,20:17:08,300034012022250,71.6966,-128.6688,3.6143,Actual,,Calculated,287.4900,Calculated,1,11
BaySys,Amundsen,2007-12-24,22:17:35,300034012022250,71.6964,-128.7182,-7.1572,Actual,,Calculated,233.6500,Calculated,1,10
BaySys,Amundsen,2007-12-25,00:17:24,300034012022250,71.6935,-128.7658,-5.4331,Actual,,Calculated,252.2400,Calculated,1,8
BaySys,Amundsen,2007-12-25,02:17:35,300034012022250,71.6924,-128.8262,1.9301,Actual,,Calculated,271.1500,Calculated,1,10
BaySys,Amundsen,2007-12-25,04:17:32,300034012022250,71.6971,-128.8994,7.3192,Actual,,Calculated,243.4000,Calculated,1,9
BaySys,Amundsen,2007-12-25,06:17:20,300034012022250,71.7036,-128.9724,-5.2380,Actual,,Calculated,287.2900,Calculated,1,9
BaySys,Amundsen,2007-12-25,08:17:59,300034012022250,71.7086,-129.0362,7.6325,Actual,,Calculated,281.2300,Calculated,1,11
BaySys,Amundsen,2007-12-25,10:17:29,300034012022250,71.7096,-129.0894,-5.2789,Actual,,Calculated,249.9700,Calculated,1,9
BaySys,Amundsen,2007-12-25,12:17:34,300034012022250,71.7068,-129.1405,24.6899,Actual,,Calculated,267.6100,Calculated,1,9
BaySys,Amundsen,2007-12-25,14:18:05,300034012022250,71.7026,-129.1981,-5.4830,Actual,,Calculated,248.8600,Calculated,1,10
BaySys,Amundsen,2007-12-25,16:17:49,300034012022250,71.6997,-129.2615,4.5678,Actual,,Calculated,262.8000,Calculated,1,6
BaySys,Amundsen,2007-12-25,18:17:36,300034012022250,71.6999,-129.3220,5.6361,Actual,,Calculated,290.5500,Calculated,1,10
BaySys,Amundsen,2007-12-25,20:17:37,300034012022250,71.6992,-129.3717,1.8137,Actual,,Calculated,252.3900,Calculated,1,9
BaySys,Amundsen,2007-12-25,22:17:34,300034012022250,71.6959,-129.4168,-12.1053,Actual,,Calculated,258.7400,Calculated,1,9
BaySys,Amundsen,2007-12-26,00:17:41,300034012022250,71.6913,-129.4595,33.5325,Actual,,Calculated,237.1400,Calculated,1,12
BaySys,Amundsen,2007-12-26,02:18:05,300034012022250,71.6860,-129.5071,1.9758,Actual,,Calculated,240.3600,Calculated,1,10
BaySys,Amundsen,2007-12-26,04:18:05,300034012022250,71.6827,-129.5626,4.0114,Actual,,Calculated,256.6400,Calculated,1,9
BaySys,Amundsen,2007-12-26,06:18:29,300034012022250,71.6806,-129.6202,-9.4391,Actual,,Calculated,265.6500,Calculated,1,11
BaySys,Amundsen,2007-12-26,08:18:23,300034012022250,71.6784,-129.6719,-3.1960,Actual,,Calculated,238.2800,Calculated,1,10
BaySys,Amundsen,2007-12-26,10:17:54,300034012022250,71.6737,-129.7187,17.0375,Actual,,Calculated,264.1300,Calculated,1,10
BaySys,Amundsen,2007-12-26,12:18:00,300034012022250,71.6666,-129.7648,3.9901,Actual,,Calculated,252.3100,Calculated,1,9
BaySys,Amundsen,2007-12-26,14:18:29,300034012022250,71.6585,-129.8113,-0.9187,Actual,,Calculated,259.5700,Calculated,1,10
BaySys,Amundsen,2007-12-26,16:18:24,300034012022250,71.6514,-129.8598,0.0258,Actual,,Calculated,249.7000,Calculated,1,7
BaySys,Amundsen,2007-12-26,18:18:04,300034012022250,71.6466,-129.9096,-4.2898,Actual,,Calculated,270.9400,Calculated,1,9
BaySys,Amundsen,2007-12-26,20:18:35,300034012022250,71.6426,-129.9555,-0.1443,Actual,,Calculated,240.4400,Calculated,1,11
BaySys,Amundsen,2007-12-26,22:18:30,300034012022250,71.6363,-129.9949,-7.9827,Actual,,Calculated,241.8100,Calculated,1,9
BaySys,Amundsen,2007-12-27,00:18:09,300034012022250,71.6286,-130.0313,1.8954,Actual,,Calculated,222.3500,Calculated,1,13
BaySys,Amundsen,2007-12-27,02:18:35,300034012022250,71.6202,-130.0722,2.3242,Actual,,Calculated,230.6800,Calculated,1,6
BaySys,Amundsen,2007-12-27,04:18:25,300034012022250,71.6133,-130.1207,0.8702,Actual,,Calculated,242.6300,Calculated,1,6
BaySys,Amundsen,2007-12-27,06:18:59,300034012022250,71.6094,-130.1715,-7.7289,Actual,,Calculated,266.3600,Calculated,1,11
BaySys,Amundsen,2007-12-27,08:18:42,300034012022250,71.6069,-130.2186,8.8971,Actual,,Calculated,252.7000,Calculated,1,10
BaySys,Amundsen,2007-12-27,10:18:20,300034012022250,71.6039,-130.2591,2.8288,Actual,,Calculated,243.3800,Calculated,1,9
BaySys,Amundsen,2007-12-27,12:18:59,300034012022250,71.5995,-130.2954,-0.7220,Actual,,Calculated,62.4200,Calculated,1,12
BaySys,Amundsen,2007-12-27,14:18:49,300034012022250,71.5950,-130.3359,7.2459,Actual,,Calculated,254.2100,Calculated,1,11
BaySys,Amundsen,2007-12-27,16:18:31,300034012022250,71.5929,-130.3838,13.4458,Actual,,Calculated,297.4100,Calculated,1,6
BaySys,Amundsen,2007-12-27,18:18:29,300034012022250,71.5941,-130.4384,0.8580,Actual,,Calculated,281.8300,Calculated,1,9
BaySys,Amundsen,2007-12-27,20:19:05,300034012022250,71.5970,-130.4922,1.1431,Actual,,Calculated,118.1000,Calculated,1,9
BaySys,Amundsen,2007-12-27,22:19:05,300034012022250,71.6001,-130.5406,6.4391,Actual,,Calculated,280.9500,Calculated,1,9
BaySys,Amundsen,2007-12-28,00:18:39,300034012022250,71.6021,-130.5848,4.3470,Actual,,Calculated,274.5600,Calculated,1,10
BaySys,Amundsen,2007-12-28,02:19:05,300034012022250,71.6027,-130.6321,7.7492,Actual,,Calculated,315.4300,Calculated,1,10
BaySys,Amundsen,2007-12-28,04:18:41,300034012022250,71.6040,-130.6896,-0.0644,Actual,,Calculated,308.9400,Calculated,1,10
BaySys,Amundsen,2007-12-28,06:19:23,300034012022250,71.6078,-130.7545,3.0516,Actual,,Calculated,292.5200,Calculated,1,11
BaySys,Amundsen,2007-12-28,08:18:54,300034012022250,71.6146,-130.8204,12.1316,Actual,,Calculated,273.4500,Calculated,1,11
BaySys,Amundsen,2007-12-28,10:19:05,300034012022250,71.6227,-130.8816,4.8566,Actual,,Calculated,103.0700,Calculated,1,10
BaySys,Amundsen,2007-12-28,12:19:08,300034012022250,71.6277,-130.9351,-10.5841,Actual,,Calculated,268.9600,Calculated,1,12
BaySys,Amundsen,2007-12-28,14:18:57,300034012022250,71.6300,-130.9875,7.3852,Actual,,Calculated,287.4800,Calculated,1,9
BaySys,Amundsen,2007-12-28,16:19:03,300034012022250,71.6315,-131.0432,8.9997,Actual,,Calculated,261.4500,Calculated,1,8
BaySys,Amundsen,2007-12-28,18:19:03,300034012022250,71.6344,-131.1071,3.9840,Actual,,Calculated,276.0700,Calculated,1,11
BaySys,Amundsen,2007-12-28,20:19:35,300034012022250,71.6397,-131.1762,-3.1989,Actual,,Calculated,311.2700,Calculated,1,11
BaySys,Amundsen,2007-12-28,22:19:20,300034012022250,71.6435,-131.2378,1.7489,Actual,,Calculated,308.5400,Calculated,1,9
BaySys,Amundsen,2007-12-29,00:19:06,300034012022250,71.6436,-131.2917,-0.1070,Actual,,Calculated,283.2600,Calculated,1,12
BaySys,Amundsen,2007-12-29,02:19:35,300034012022250,71.6410,-131.3485,0.4499,Actual,,Calculated,262.2300,Calculated,1,8
BaySys,Amundsen,2007-12-29,04:19:11,300034012022250,71.6380,-131.4149,6.6395,Actual,,Calculated,251.2200,Calculated,1,8
BaySys,Amundsen,2007-12-29,06:19:25,300034012022250,71.6369,-131.4860,0.0741,Actual,,Calculated,276.9700,Calculated,1,5
BaySys,Amundsen,2007-12-29,08:19:14,300034012022250,71.6381,-131.5564,5.9917,Actual,,Calculated,177.2900,Calculated,1,8
BaySys,Amundsen,2007-12-29,10:19:35,300034012022250,71.6395,-131.6182,14.0579,Actual,,Calculated,69.7200,Calculated,1,10
BaySys,Amundsen,2007-12-29,12:19:38,300034012022250,71.6384,-131.6742,4.6938,Actual,,Calculated,254.0100,Calculated,1,13
BaySys,Amundsen,2007-12-29,14:19:28,300034012022250,71.6353,-131.7277,14.7060,Actual,,Calculated,245.1000,Calculated,1,9
BaySys,Amundsen,2007-12-29,16:20:05,300034012022250,71.6306,-131.7806,9.0395,Actual,,Calculated,259.4000,Calculated,1,6
BaySys,Amundsen,2007-12-29,18:19:48,300034012022250,71.6255,-131.8371,-1.0969,Actual,,Calculated,256.8100,Calculated,1,11
BaySys,Amundsen,2007-12-29,20:19:38,300034012022250,71.6213,-131.8970,16.8903,Actual,,Calculated,254.9100,Calculated,1,7
BaySys,Amundsen,2007-12-29,22:20:05,300034012022250,71.6174,-131.9516,4.7317,Actual,,Calculated,274.5500,Calculated,1,6
BaySys,Amundsen,2007-12-30,00:19:38,300034012022250,71.6123,-132.0012,0.8994,Actual,,Calculated,260.9000,Calculated,1,10
BaySys,Amundsen,2007-12-30,02:20:05,300034012022250,71.6063,-132.0486,-0.1317,Actual,,Calculated,255.1400,Calculated,1,6
BaySys,Amundsen,2007-12-30,04:20:00,300034012022250,71.5989,-132.1012,0.3450,Actual,,Calculated,210.3600,Calculated,1,6
BaySys,Amundsen,2007-12-30,06:20:23,300034012022250,71.5904,-132.1593,3.1725,Actual,,Calculated,174.6500,Calculated,1,9
BaySys,Amundsen,2007-12-30,08:20:08,300034012022250,71.5847,-132.2133,18.4804,Actual,,Calculated,272.2700,Calculated,1,10
BaySys,Amundsen,2007-12-30,10:19:57,300034012022250,71.5792,-132.2638,5.7570,Actual,,Calculated,234.1800,Calculated,1,11
BaySys,Amundsen,2007-12-30,12:20:29,300034012022250,71.5719,-132.3137,-0.7135,Actual,,Calculated,239.7100,Calculated,1,13
BaySys,Amundsen,2007-12-30,14:20:05,300034012022250,71.5645,-132.3644,37.7325,Actual,,Calculated,242.3200,Calculated,1,10
BaySys,Amundsen,2007-12-30,16:20:21,300034012022250,71.5557,-132.4156,1.3138,Actual,,Calculated,239.1100,Calculated,1,8
BaySys,Amundsen,2007-12-30,18:20:04,300034012022250,71.5469,-132.4699,-3.8488,Actual,,Calculated,242.6600,Calculated,1,8
BaySys,Amundsen,2007-12-30,20:20:02,300034012022250,71.5393,-132.5218,16.1423,Actual,,Calculated,255.0200,Calculated,1,11
BaySys,Amundsen,2007-12-30,22:20:35,300034012022250,71.5323,-132.5717,1.9245,Actual,,Calculated,240.6800,Calculated,1,7